Location: Acts Church of Fort Worth
(32.6786°N, 97.2668°W)
Time: 22:43:45
(UTC+00:00)

Cosmos 1850 Rocket - Pass Details

Date: 18 January 2026
Orbit: 749 x 781 km, 74.0° (Epoch: 13 February)

Event Time Altitude Azimuth Distance (km) Brightness Sun altitude
Rises 00:08:11 0° 350° (N) 3,260 7.1 -4.8°
Reaches altitude 10° 00:10:40 10° 356° (N) 2,333 6.3 -5.2°
Maximum altitude 00:15:47 48° 70° (ENE) 1,016 4.3 -6.3°
Drops below altitude 10° 00:20:53 10° 144° (SE) 2,327 6.3 -7.3°
Sets 00:23:20 0° 150° (SSE) 3,251 7.1 -7.7°
